Temp
17 17 17 18 18 18 18 18 19 19 19 19 19 19 19 20 20 18 18 18 18 19 18 15 14 13 10 10 10 9 11 11 10 10 10 10 11 12 12 12 12 12 12 12 13 13 13 14 14 13 13 10 7 3 2 2 4 6 10 11 8 8 11 12 12 14 12 8 8 8 8 8 8 7 7 7 6 5 5 5 4 4 4 4 4 3 5
18 18 18 18 18 18 18 19 19 19 19 19 19 19 19 18 19 19 18 18 19 19 18 16 14 12 11 11 11 9 10 11 11 11 11 11 11 12 13 12 11 11 11 11 13 12 12 14 12 12 13 9 3 2 2 2 5 7 8 7 7 8 12 12 11 12 11 10 10 9 8 9 9 7 5 5 5 4 4 3 3 3 4 4 3 2 4
18 18 18 19 19 19 19 20 20 20 20 20 19 19 18 18 19 20 18 18 18 17 15 16 14 12 13 13 12 11 11 10 10 11 11 10 10 11 12 11 11 11 10 11 12 11 12 13 11 10 11 9 3 2 1 2 5 6 3 3 4 8 12 12 10 10 10 10 10 10 10 10 10 7 4 4 4 3 3 4 3 3 4 4 2 2 4
19 19 19 19 19 20 20 20 20 20 19 19 19 17 18 20 21 20 19 18 16 14 14 15 15 13 14 14 12 13 13 11 9 9 11 10 9 11 11 10 10 11 11 12 13 12 11 11 11 11 11 9 6 4 2 2 4 3 1 0 3 8 11 11 10 9 9 10 10 10 11 9 9 8 5 3 3 2 3 3 3 3 2 2 2 3 3
19 19 19 20 19 20 20 20 20 20 19 20 19 16 17 20 18 17 18 18 17 16 15 15 15 14 15 15 12 12 14 13 10 10 10 9 9 11 11 11 12 13 12 13 14 13 12 11 10 10 9 9 8 5 3 4 3 2 1 1 4 9 11 9 9 9 9 9 9 9 10 9 8 8 6 4 3 2 2 2 3 3 1 1 3 3 2
20 20 20 20 19 19 20 20 20 20 19 20 20 17 16 17 16 13 14 16 17 16 15 13 13 14 14 13 12 13 14 13 13 11 10 10 10 11 13 12 12 12 11 12 14 14 13 12 10 9 8 8 8 7 6 6 4 3 4 4 4 8 10 8 7 7 8 8 9 9 9 8 8 7 6 5 3 2 2 2 2 2 1 1 3 3 2
20 20 20 19 20 20 20 20 20 20 20 19 20 18 15 15 15 12 11 13 12 11 11 12 13 14 13 13 12 13 14 14 12 11 11 12 11 11 14 13 12 11 11 11 13 13 13 12 10 9 8 7 8 9 8 7 6 5 7 5 3 7 9 7 5 6 7 8 9 9 8 8 7 6 5 5 4 3 2 2 3 2 2 2 2 2 2
20 20 20 20 20 20 20 20 19 19 20 20 19 17 15 16 16 14 13 13 10 9 10 12 15 15 14 15 13 12 14 14 12 10 11 14 13 12 13 13 11 10 10 11 12 12 11 11 10 8 8 8 8 9 9 8 7 7 7 5 4 6 8 6 4 6 8 9 9 9 8 7 6 5 5 4 4 4 3 2 3 2 2 2 2 1 1
21 21 21 20 20 20 20 20 20 20 20 20 18 15 13 15 15 15 17 15 11 11 12 13 16 18 16 16 13 12 14 13 12 12 10 11 13 12 12 12 10 9 10 11 12 10 9 9 9 8 8 8 8 8 8 7 8 8 6 4 5 6 7 6 5 6 9 10 9 9 7 5 4 4 5 4 3 3 3 3 3 2 1 1 1 0 1
22 22 21 21 21 21 21 21 21 20 20 20 18 15 12 13 14 15 18 16 12 12 14 15 17 16 14 12 12 12 12 11 11 13 11 9 10 10 10 11 11 11 11 10 9 8 7 7 7 7 7 8 7 7 6 5 6 7 5 4 4 4 6 7 6 6 9 10 9 8 6 4 4 5 4 4 3 3 3 3 3 2 2 1 0 1 1
22 22 22 22 22 22 22 22 22 22 22 21 19 15 13 16 17 16 18 18 13 11 14 17 17 14 11 10 10 10 11 10 11 13 13 11 8 7 8 10 11 12 11 7 5 5 5 5 6 6 7 7 6 6 6 5 5 5 4 5 4 3 5 7 6 5 7 8 7 8 7 6 6 5 4 3 3 2 2 2 2 2 2 2 1 1 1
23 23 23 23 23 23 23 23 23 23 23 23 22 18 16 17 18 18 20 20 14 12 14 14 11 9 9 10 11 11 11 10 10 9 11 11 9 7 8 9 11 10 7 4 4 5 5 6 6 6 6 6 6 6 6 6 5 4 4 4 5 5 7 7 5 5 6 7 6 7 7 7 5 4 4 3 3 3 2 2 2 2 2 2 1 1 1
23 23 23 23 23 23 23 23 23 23 23 23 23 21 19 18 18 18 19 19 14 12 13 10 6 6 9 10 10 10 9 8 8 7 8 10 9 8 9 9 9 7 4 4 5 5 7 8 8 7 7 7 7 7 6 5 5 5 5 4 5 6 7 6 6 6 6 6 5 5 7 7 5 4 4 3 3 2 1 0 1 2 2 1 0 -0 0
23 23 23 23 23 23 23 23 22 22 22 22 23 22 19 19 19 18 19 19 14 9 10 11 10 8 9 10 10 10 9 9 9 8 8 9 9 9 8 6 5 4 5 5 5 6 9 11 10 9 9 8 8 7 6 5 5 5 5 5 6 7 7 6 6 6 5 4 4 5 7 7 4 3 3 3 2 2 0 -1 -0 1 2 1 -0 -0 -0
23 23 23 23 23 23 22 22 22 22 21 22 23 21 19 19 19 18 17 17 15 10 10 12 13 11 11 10 10 11 13 12 12 11 9 8 7 7 4 3 3 4 5 6 7 8 10 11 11 12 11 10 10 9 7 6 5 4 4 5 6 6 6 6 6 5 5 4 4 4 5 6 4 3 3 3 2 2 1 -1 -1 1 1 0 -0 -1 -1
22 22 22 22 22 22 22 22 21 21 21 22 22 21 19 19 19 18 16 16 17 15 11 8 8 9 11 10 9 10 14 14 14 14 12 10 8 6 2 1 2 3 4 6 8 9 10 11 11 12 12 11 11 10 9 9 7 5 4 5 5 5 5 5 5 5 5 4 3 3 4 5 4 3 3 3 2 2 1 -1 -1 1 1 -0 -1 -1 -2
22 22 22 22 21 21 21 21 21 21 21 21 22 21 19 18 19 18 17 15 14 12 7 4 5 9 12 12 11 10 12 12 13 14 14 13 10 7 3 1 2 3 4 7 9 10 11 11 11 12 12 11 10 10 10 10 9 7 5 5 5 5 5 5 5 5 5 4 3 4 4 4 4 3 3 3 2 2 -0 -2 -1 1 0 -1 -1 -2 -2
22 21 21 21 21 21 21 20 21 21 21 21 22 22 19 18 18 18 16 14 12 10 5 2 4 8 9 9 10 10 10 11 12 13 14 13 11 9 7 4 5 5 4 7 11 11 11 12 11 11 12 10 9 10 10 10 9 8 7 7 7 5 5 5 4 5 5 4 3 4 5 4 3 3 3 2 2 1 -1 -2 -1 0 -0 -1 -1 -2 -2
21 21 21 21 21 21 21 21 21 21 21 21 22 20 18 17 18 17 16 14 12 10 5 0 2 5 3 3 7 8 7 8 10 13 15 14 11 8 7 6 7 7 7 9 11 11 11 12 10 9 10 10 9 9 10 9 8 8 7 7 6 5 4 5 5 4 5 4 3 4 4 3 2 3 3 2 0 -2 -2 -0 0 -0 -1 -1 -2 -2 -2
21 21 20 21 21 20 20 20 20 21 21 21 22 20 16 16 17 17 16 12 9 7 4 1 1 3 1 2 6 7 8 9 10 12 15 14 9 8 10 10 9 9 10 11 11 10 10 11 10 9 10 11 10 9 9 8 7 7 6 5 5 4 4 6 5 4 4 4 3 2 2 3 3 3 2 1 -0 -1 -0 0 -0 -1 -1 -2 -2 -2 -2
20 20 20 20 20 20 20 20 19 20 20 20 22 20 16 15 16 16 16 14 10 8 6 2 0 1 1 1 1 2 4 7 7 8 11 11 9 9 12 13 10 10 11 11 11 11 10 10 10 9 9 10 9 9 9 8 7 6 4 4 4 4 4 5 5 3 2 3 3 2 3 5 4 2 1 1 1 1 0 -1 -1 -1 -1 -2 -2 -2 -3
20 20 20 20 20 19 20 19 19 20 20 20 22 20 15 13 14 15 17 14 8 5 4 1 0 0 0 0 0 -0 1 2 1 2 5 9 9 9 10 11 10 10 9 9 10 11 10 9 9 9 10 10 10 8 7 8 7 5 3 4 5 4 4 5 4 3 3 3 3 4 5 5 4 3 2 1 1 1 0 -1 -2 -2 -2 -2 -3 -3 -3
20 20 19 20 19 19 19 19 19 19 19 19 21 20 15 13 14 15 16 11 4 2 2 1 1 2 1 1 1 1 1 1 -0 -1 0 5 9 10 9 9 9 7 7 8 9 10 10 9 9 9 9 9 9 8 7 7 7 5 4 5 5 4 4 4 3 3 4 4 5 5 4 4 3 3 2 1 1 0 -0 -1 -2 -2 -2 -2 -3 -3 -3
19 19 19 19 19 19 19 18 18 18 18 18 19 19 16 14 14 15 14 11 7 6 5 4 5 5 3 2 1 1 1 1 0 -0 -1 1 6 10 9 7 6 7 7 6 6 7 8 8 6 7 8 8 7 8 8 8 8 6 5 6 5 4 4 3 3 3 3 3 5 5 3 3 2 2 2 1 0 0 -1 -2 -2 -2 -2 -2 -3 -3 -3
18 19 19 19 19 18 18 18 18 18 18 18 18 18 16 15 15 15 15 13 12 12 11 9 6 4 2 2 1 1 1 1 1 0 -1 -1 1 5 6 3 3 5 6 5 5 6 8 8 7 7 8 7 6 8 9 8 7 6 6 6 5 4 3 3 3 3 3 3 5 4 3 2 2 1 1 1 -0 -1 -1 -1 -2 -2 -2 -2 -3 -3 -4
17 18 18 18 18 18 17 17 17 17 17 17 17 17 17 15 15 15 15 14 13 13 12 10 7 4 3 3 2 1 2 2 1 0 -1 -1 -1 0 1 1 2 3 4 4 5 6 7 7 7 8 8 6 5 6 7 7 7 6 5 6 5 3 2 3 3 3 3 4 4 3 1 1 2 1 1 0 -1 -1 -2 -2 -2 -2 -3 -3 -3 -3 -4
16 17 17 17 17 17 17 17 17 17 17 17 17 17 16 15 15 15 15 14 15 15 13 10 7 5 3 3 3 3 3 3 2 1 -1 -1 -1 -2 -1 1 3 4 5 5 5 5 6 7 7 7 6 4 3 3 4 4 5 4 4 5 4 3 3 4 3 2 2 3 3 2 -0 -0 1 1 0 -0 -1 -1 -2 -2 -2 -3 -3 -3 -4 -4 -4
16 16 16 17 17 17 17 16 16 17 17 17 17 17 16 15 15 15 14 14 15 15 12 10 8 6 5 4 4 4 3 3 3 2 -0 -1 -1 -2 -1 1 3 5 6 6 6 6 7 7 6 5 4 3 3 3 3 3 3 4 5 5 4 3 4 3 2 2 2 3 3 1 -0 -1 -0 0 -0 -1 -1 -1 -2 -3 -3 -3 -3 -3 -4 -5 -5
17 17 17 17 17 17 17 17 17 16 16 16 16 16 16 14 14 14 14 15 14 12 9 9 8 8 7 6 4 3 3 3 3 2 1 -0 -0 -0 1 2 4 5 5 5 7 8 7 6 5 4 3 3 4 4 4 4 4 5 5 5 4 3 3 3 2 2 2 2 2 0 -1 -1 -1 -1 -1 -1 -1 -2 -2 -3 -3 -3 -3 -4 -4 -5 -5
16 16 16 17 17 17 18 18 17 17 16 16 16 17 16 15 14 13 13 14 14 12 10 10 10 8 6 5 5 4 4 3 3 2 2 2 2 1 2 3 3 4 5 6 6 6 6 5 4 3 3 3 3 4 4 4 4 5 5 4 3 3 3 2 2 2 1 1 1 -0 -1 -1 -1 -1 -1 -1 -1 -2 -3 -3 -3 -3 -4 -4 -5 -5 -6
16 16 16 16 16 16 17 18 18 17 16 16 16 16 16 16 15 13 13 13 14 13 11 10 9 8 7 6 5 5 4 3 3 3 2 2 3 2 2 2 3 3 5 6 6 5 5 5 4 3 3 2 3 4 4 3 4 5 4 3 3 3 2 2 2 2 1 0 -0 -1 -1 -1 -1 -1 -1 -1 -1 -2 -3 -3 -3 -4 -4 -4 -5 -6 -6
15 15 15 15 15 15 16 16 17 17 17 16 14 14 13 13 13 13 13 13 13 12 12 12 10 9 9 8 5 5 4 3 4 4 4 4 4 3 3 3 4 4 4 5 6 5 4 4 4 3 3 2 2 3 3 3 4 4 3 3 3 2 2 2 2 1 0 0 -1 -2 -2 -1 -1 -1 -2 -2 -2 -3 -3 -3 -3 -4 -4 -5 -5 -6 -6
15 15 15 15 15 15 15 15 16 16 16 15 13 13 12 13 13 13 13 14 12 11 12 13 11 10 10 8 6 5 5 5 5 6 6 4 4 5 5 4 4 5 4 5 5 5 4 4 4 3 2 2 2 2 2 3 4 4 3 2 2 2 1 1 1 0 -0 -0 -1 -2 -2 -2 -1 -2 -2 -2 -2 -3 -3 -3 -4 -4 -5 -5 -6 -6 -6
15 15 15 15 14 15 15 15 15 15 15 14 13 12 12 13 13 13 13 13 12 10 10 10 11 11 10 9 8 6 5 6 7 7 6 5 4 5 6 6 6 6 5 4 5 5 4 3 4 4 3 2 1 1 3 4 4 3 3 2 2 2 1 1 0 0 -0 -0 -1 -1 -2 -2 -2 -2 -2 -2 -3 -3 -3 -4 -4 -5 -5 -6 -6 -6 -6
15 15 15 14 14 14 15 15 15 15 14 13 12 12 12 12 12 13 13 13 13 13 10 8 9 10 10 11 11 8 5 5 6 5 5 5 4 4 5 6 6 6 4 4 5 5 4 3 3 3 4 2 2 2 4 4 3 3 3 3 2 1 1 -0 -0 0 -0 -0 -1 -1 -2 -2 -2 -3 -3 -3 -3 -3 -3 -4 -4 -5 -6 -6 -6 -7 -7
15 15 15 14 14 14 14 14 14 14 13 12 12 12 12 13 12 12 13 13 12 12 10 8 8 8 8 9 10 7 5 6 6 5 4 5 4 4 4 6 6 5 3 4 5 5 3 2 2 3 4 3 3 4 4 3 2 2 2 2 2 1 0 -0 -1 -1 -1 -1 -1 -2 -2 -2 -3 -3 -3 -3 -3 -3 -4 -4 -5 -6 -7 -7 -7 -7 -8
15 15 15 15 14 14 14 13 13 12 12 12 12 12 12 13 13 13 13 12 10 9 9 9 9 6 5 7 7 6 6 6 7 5 5 5 4 3 4 5 6 4 4 4 4 3 2 2 2 3 4 4 4 4 3 2 2 2 1 2 1 1 0 -0 -1 -1 -2 -2 -2 -2 -2 -2 -3 -3 -3 -4 -4 -4 -4 -5 -6 -6 -7 -7 -8 -8 -9
15 15 15 15 14 14 14 13 12 12 12 12 12 13 12 11 12 12 10 9 8 7 7 8 7 4 3 5 6 5 5 5 6 6 5 4 4 4 4 4 4 4 4 5 3 1 2 2 1 1 3 3 3 3 2 2 2 2 1 1 1 1 0 -0 -1 -2 -3 -3 -3 -2 -3 -3 -3 -4 -4 -4 -5 -5 -5 -5 -6 -6 -7 -8 -8 -9 -9
16 15 15 15 15 14 14 13 12 13 13 12 13 13 11 10 12 12 9 7 7 7 6 6 5 3 4 6 6 4 3 4 5 6 5 4 5 5 5 4 4 3 5 5 3 1 3 3 0 0 3 3 3 3 3 2 2 2 2 2 1 1 0 -0 -1 -2 -2 -3 -3 -3 -3 -4 -4 -4 -5 -5 -5 -5 -5 -6 -6 -7 -8 -8 -9 -10 -10
15 15 14 14 14 13 13 13 13 13 13 12 12 12 11 10 10 9 8 9 9 7 5 5 3 1 1 3 4 3 2 2 4 4 3 4 4 3 4 4 3 3 4 5 2 1 3 4 2 2 4 5 4 3 3 2 2 2 2 1 1 0 -0 -1 -1 -1 -2 -2 -3 -3 -3 -4 -4 -5 -5 -6 -6 -6 -6 -7 -7 -8 -9 -9 -10 -10 -10
15 15 14 14 14 13 13 13 13 12 12 12 13 12 11 10 6 3 6 11 11 6 2 2 3 3 1 1 3 3 2 0 0 1 2 3 3 3 3 4 3 3 5 4 1 -0 2 3 3 4 5 5 4 4 3 2 2 2 2 1 1 -0 -1 -1 -1 -2 -2 -2 -3 -3 -4 -4 -5 -5 -6 -6 -7 -7 -8 -8 -9 -9 -10 -10 -10 -11 -11
14 14 13 13 13 13 13 13 13 12 12 14 14 11 9 9 7 6 8 9 8 4 3 3 3 4 2 0 1 2 1 -1 -1 1 2 3 2 2 2 2 3 4 5 2 -0 1 3 3 4 5 5 5 4 3 3 2 2 2 1 1 0 -0 -1 -1 -2 -2 -2 -3 -3 -4 -4 -5 -6 -6 -7 -7 -8 -8 -9 -9 -10 -10 -10 -11 -11 -11 -11
14 13 13 13 13 13 13 13 11 11 12 14 14 13 11 10 8 8 8 5 3 3 4 3 2 3 2 0 0 1 -0 -1 -1 1 1 1 1 1 2 3 4 4 3 0 0 3 4 4 4 5 5 5 4 3 2 2 2 1 1 0 -0 -1 -1 -2 -2 -2 -3 -3 -4 -4 -5 -5 -6 -6 -7 -8 -8 -9 -9 -10 -10 -10 -11 -11 -11 -11 -11
13 13 13 13 12 12 14 14 12 12 14 14 12 14 15 12 9 8 9 7 4 4 3 1 2 4 3 1 0 1 0 -0 0 1 1 0 -0 1 3 5 4 3 2 1 2 4 3 3 4 5 5 4 4 3 2 2 1 1 0 -0 -1 -1 -1 -2 -2 -2 -3 -3 -4 -4 -5 -5 -6 -7 -7 -8 -9 -9 -10 -10 -10 -11 -11 -11 -11 -12 -12
14 13 14 15 14 13 14 15 13 13 14 13 11 12 13 12 11 10 8 3 2 3 2 -1 0 3 2 1 0 -0 -1 0 2 2 0 0 1 3 3 3 2 1 2 2 3 4 4 4 5 5 4 3 3 3 2 2 1 0 -0 -1 -1 -1 -1 -2 -2 -3 -3 -3 -4 -5 -5 -6 -7 -7 -8 -8 -9 -10 -10 -11 -11 -11 -11 -12 -12 -12 -13
13 11 12 16 15 12 12 14 15 13 12 10 8 9 10 9 9 6 1 -2 -0 2 1 -2 -1 1 2 2 1 -1 -2 -0 2 1 -1 0 3 4 2 1 2 2 3 4 4 5 5 5 5 4 3 2 2 2 1 1 0 -0 -1 -1 -1 -1 -2 -2 -3 -3 -3 -4 -4 -5 -6 -6 -7 -8 -8 -9 -10 -10 -11 -11 -11 -12 -12 -12 -13 -13 -13
12 9 11 15 14 11 11 12 11 8 6 3 2 2 1 1 1 -0 -3 -4 -2 -1 -3 -4 -2 -0 0 0 1 0 -1 -1 1 1 -1 1 3 3 1 2 3 3 3 5 6 5 5 5 4 3 2 1 -0 -0 -0 -0 -0 -1 -1 -1 -1 -2 -3 -3 -3 -4 -4 -5 -5 -6 -6 -7 -8 -9 -10 -10 -10 -11 -11 -11 -12 -12 -13 -13 -13 -13 -14
12 10 12 14 14 12 12 9 4 1 -0 -2 -3 -4 -5 -4 -0 -0 -3 -5 -4 -2 -2 -2 -0 1 0 -0 1 1 0 0 2 1 -0 0 3 3 3 5 5 3 2 4 5 5 5 4 3 1 0 -1 -2 -2 -1 -1 -1 -1 -2 -2 -2 -3 -4 -4 -5 -5 -5 -6 -6 -7 -7 -8 -9 -10 -11 -11 -11 -11 -11 -12 -12 -13 -13 -13 -13 -14 -15
10 10 10 9 9 8 5 3 3 5 2 -4 -6 -5 -5 -2 2 1 -4 -6 -4 -3 -3 -3 -0 2 2 0 0 2 2 1 2 2 1 1 4 4 4 5 6 5 4 4 4 4 4 3 1 0 -1 -2 -2 -2 -2 -1 -1 -2 -3 -3 -4 -5 -5 -5 -6 -6 -6 -7 -7 -7 -8 -10 -10 -11 -11 -11 -12 -12 -12 -12 -12 -13 -13 -14 -14 -15 -15
8 8 7 6 8 8 4 2 6 10 7 1 -1 -1 -2 1 3 0 -5 -6 -5 -4 -4 -2 -0 1 1 1 3 4 3 0 -0 2 3 4 4 3 2 4 6 6 5 5 4 4 3 2 0 -1 -2 -3 -3 -2 -2 -2 -3 -4 -5 -5 -5 -6 -6 -7 -7 -7 -7 -7 -8 -9 -10 -11 -11 -11 -12 -12 -12 -12 -12 -12 -13 -13 -14 -15 -15 -16 -16
7 7 4 3 5 7 6 5 8 10 8 6 5 2 0 2 3 -0 -5 -6 -4 -1 1 2 1 1 3 4 5 5 3 -1 -1 2 4 3 2 2 4 6 6 6 5 5 4 3 2 1 -1 -2 -2 -3 -3 -3 -3 -5 -5 -6 -6 -6 -6 -7 -7 -7 -8 -8 -8 -9 -9 -10 -11 -12 -12 -12 -12 -12 -12 -12 -13 -13 -13 -14 -15 -15 -16 -16 -17
8 7 4 0 -1 0 2 4 6 5 3 3 2 -0 0 2 0 -4 -6 -4 -0 2 3 2 1 3 6 6 3 2 2 1 2 4 4 2 1 2 5 6 6 4 4 3 2 1 1 0 -1 -2 -3 -4 -4 -4 -5 -6 -6 -6 -6 -7 -7 -8 -8 -8 -8 -9 -9 -10 -11 -11 -11 -12 -12 -12 -13 -13 -13 -13 -14 -14 -14 -15 -16 -16 -17 -17 -17
Height
822 823 823 824 825 825 824 824 824 823 823 823 823 823 823 825 829 829 826 825 823 825 841 857 859 866 877 878 878 881 879 878 880 882 883 881 879 877 876 877 877 875 876 874 872 873 870 866 867 867 868 877 889 898 902 899 895 887 873 870 881 880 865 857 848 837 844 860 863 862 864 863 863 870 871 872 879 882 882 883 882 883 878 868 871 864 831
824 824 824 825 825 824 825 824 823 823 823 823 823 823 826 829 829 829 829 826 823 830 844 856 865 873 876 875 878 881 880 879 879 879 879 880 880 876 875 878 878 878 880 877 873 874 872 867 870 871 868 879 895 900 900 898 890 884 882 882 884 875 858 854 854 847 846 851 853 857 861 858 856 869 880 880 883 888 887 887 890 886 874 870 879 868 833
824 824 825 825 825 825 824 824 824 824 824 824 824 824 827 829 830 831 832 828 828 840 851 854 863 873 872 873 878 877 879 883 882 880 881 883 884 879 877 881 880 880 881 878 874 876 873 869 872 875 872 880 894 898 899 899 891 890 895 897 892 876 858 856 864 868 864 857 854 853 852 851 851 865 884 886 886 890 887 883 886 883 872 873 883 869 837
824 824 825 824 825 825 824 825 825 824 825 825 825 826 827 828 832 836 836 835 838 850 856 853 859 868 867 869 876 875 875 881 885 884 882 884 885 881 880 882 881 878 878 875 871 872 875 875 874 874 873 878 888 895 897 898 895 896 901 902 895 878 863 861 868 874 872 864 859 855 853 856 856 861 877 887 890 892 889 887 884 881 880 878 873 863 846
824 825 825 825 825 825 825 826 825 825 827 826 826 829 830 831 842 848 845 844 847 853 858 858 860 864 863 866 876 877 873 877 882 884 883 884 886 881 879 881 878 874 875 873 868 868 873 876 877 880 881 881 885 892 895 895 896 899 900 900 894 876 864 870 875 875 872 865 862 859 857 860 860 861 872 884 890 892 893 893 885 883 890 880 859 857 856
825 825 825 826 826 826 826 826 826 827 827 826 827 832 835 839 850 857 853 853 857 858 861 865 866 866 867 873 879 877 874 876 877 880 883 884 884 880 876 878 878 877 878 875 869 867 869 872 879 885 886 886 884 886 890 891 894 897 893 893 895 880 868 878 883 878 873 868 863 860 858 860 862 865 871 877 887 893 893 891 886 886 892 879 858 857 858
826 826 826 827 826 826 827 827 827 827 827 828 827 832 841 845 851 859 859 861 868 872 872 870 868 868 870 874 879 876 873 876 879 882 881 878 880 880 874 874 878 880 881 878 872 871 870 871 878 883 885 888 885 881 882 886 890 891 888 892 899 885 871 881 892 886 874 864 859 859 860 862 865 869 873 876 881 887 888 886 884 883 882 874 864 861 855
826 827 827 827 827 827 827 828 829 828 828 829 828 833 841 842 845 854 858 863 873 878 876 871 865 866 868 869 876 878 874 874 879 884 881 875 876 879 875 876 882 883 883 879 875 876 877 877 881 886 886 886 885 880 878 883 887 889 889 894 897 887 878 885 894 885 866 856 856 858 860 864 868 871 875 878 879 881 883 883 880 879 876 869 866 863 854
827 828 828 828 828 828 828 828 829 829 828 829 830 835 839 839 842 845 848 862 874 874 873 871 863 861 865 868 876 879 874 876 878 880 884 882 878 879 879 879 883 885 884 881 878 881 884 883 885 888 887 885 886 885 884 887 887 886 893 898 895 890 884 884 890 882 859 850 855 856 861 873 878 876 875 878 881 882 883 881 879 878 875 868 866 864 854
829 829 828 829 829 829 830 829 829 830 829 829 831 837 840 840 843 842 843 859 875 873 869 867 862 866 875 877 880 880 878 883 882 877 881 886 885 885 885 883 881 880 880 883 885 888 890 890 889 890 889 888 890 890 891 894 890 888 896 901 900 899 888 878 887 883 859 852 858 859 867 877 875 873 876 879 882 882 880 878 876 875 874 871 868 861 851
830 830 830 830 830 830 830 830 830 830 830 830 832 836 839 839 841 843 843 855 873 877 870 864 864 874 883 883 883 883 882 884 883 878 878 882 887 889 888 886 882 878 881 890 894 894 893 893 892 892 891 890 892 893 893 895 895 896 898 897 899 902 891 881 890 888 868 860 862 858 858 862 864 869 876 880 883 883 882 879 875 872 870 868 864 857 852
833 833 832 832 832 832 832 831 831 831 831 831 832 834 838 838 839 841 841 851 870 876 870 873 881 884 885 884 882 882 883 883 886 886 883 882 887 891 889 888 884 883 890 896 895 894 894 892 892 893 893 893 893 893 892 893 896 897 898 898 896 891 884 883 891 891 875 866 867 863 854 856 868 875 877 879 881 881 880 877 872 870 868 864 862 860 857
835 835 835 835 834 834 834 833 833 833 833 833 833 834 837 838 838 841 842 851 869 876 873 882 894 892 887 885 883 884 887 888 890 891 889 885 887 888 888 889 888 890 895 896 895 895 890 887 888 890 890 891 891 892 893 895 896 895 896 897 894 886 883 884 885 885 879 874 879 877 861 857 870 876 875 879 881 879 881 877 869 867 867 865 865 863 859
838 837 837 837 836 836 836 835 835 835 834 835 835 835 837 838 838 841 841 849 871 885 882 880 886 888 886 885 884 885 887 888 888 889 888 887 886 887 890 893 894 895 896 895 895 893 883 878 879 880 882 885 885 887 892 895 896 896 894 893 890 885 883 884 882 884 888 888 884 874 858 855 869 877 878 882 883 882 885 881 870 864 865 867 868 864 859
840 839 839 838 838 838 838 837 837 836 836 837 836 836 838 838 838 839 841 848 866 882 883 877 877 881 883 885 885 883 880 880 882 883 886 890 890 891 895 897 896 896 897 895 892 887 880 876 873 868 869 873 872 874 883 890 894 898 896 892 890 886 885 888 888 886 890 891 887 878 866 861 869 878 880 882 883 881 884 884 873 863 864 867 866 862 859
842 841 841 841 840 840 840 839 839 839 839 839 838 838 838 839 839 840 842 846 856 870 880 885 886 884 882 885 889 885 878 876 876 876 878 884 889 893 897 899 897 897 898 894 889 884 879 876 873 866 862 864 866 867 872 875 882 893 897 893 890 890 889 890 889 886 889 894 893 887 877 867 871 879 878 879 882 880 881 884 872 860 863 867 864 862 860
844 844 843 843 842 842 842 841 841 841 841 841 840 839 839 841 841 841 843 848 859 875 887 891 890 885 880 881 885 885 882 880 879 876 874 877 884 890 896 899 898 898 898 891 884 880 875 873 871 865 860 864 869 869 866 864 868 880 889 889 889 891 890 889 888 886 886 891 891 884 874 870 874 879 878 878 878 876 882 885 870 858 864 868 864 864 862
847 846 846 845 845 844 844 843 843 843 842 842 842 840 841 843 843 843 845 850 862 880 892 893 890 887 885 884 885 886 886 884 882 878 874 876 881 885 890 894 894 895 897 890 880 875 871 870 871 868 864 869 875 872 866 866 869 874 878 878 882 889 892 890 890 887 884 889 890 880 872 873 878 879 879 878 877 878 884 884 871 863 867 868 866 866 862
850 849 848 848 847 846 846 845 845 845 844 843 843 843 844 845 845 845 847 851 861 878 891 895 894 892 893 893 891 889 889 888 885 879 872 873 881 886 889 890 888 889 891 886 878 875 872 869 873 878 872 868 873 873 868 870 874 876 879 880 881 888 891 886 886 888 884 883 886 881 874 876 879 878 876 879 884 889 886 877 869 868 869 868 867 865 861
853 852 851 850 849 849 848 847 847 846 845 845 844 844 846 848 847 846 848 853 866 882 893 896 895 895 896 895 892 890 889 887 885 882 875 876 884 886 881 880 883 883 882 878 876 878 876 870 873 881 875 867 871 873 872 877 882 881 885 889 889 892 891 880 880 890 888 881 888 893 885 875 874 877 878 881 886 888 881 873 872 872 870 868 866 863 860
855 854 854 853 852 851 850 849 849 848 847 847 846 845 848 850 850 849 848 850 860 878 891 896 896 896 897 896 896 895 893 890 889 888 884 882 886 884 877 876 881 881 879 878 877 877 879 876 876 880 876 870 873 875 874 877 881 885 892 895 892 894 891 881 882 894 896 890 890 890 880 870 871 878 881 881 880 879 877 876 875 872 869 868 865 861 859
858 857 857 855 855 854 853 852 852 851 850 851 848 846 850 854 854 854 853 853 862 878 891 895 896 897 896 896 897 896 895 896 896 895 893 888 886 885 883 882 883 884 884 884 879 876 878 880 879 878 874 869 870 876 880 877 876 886 897 893 888 889 888 886 888 891 892 889 882 875 871 871 874 877 878 878 877 877 877 877 874 871 870 867 864 861 858
860 860 859 858 857 857 856 855 855 853 853 853 851 849 852 856 858 857 856 860 871 885 893 895 895 896 897 897 897 896 896 897 896 897 898 894 887 884 885 886 887 888 889 888 884 881 880 880 880 879 875 873 872 876 881 878 875 885 891 886 883 886 887 890 892 888 885 882 874 871 873 874 874 876 877 877 877 876 876 876 873 871 868 865 863 861 857
863 862 862 861 860 859 858 858 857 856 856 856 854 853 854 857 860 860 860 865 874 883 891 895 895 896 897 898 897 896 896 897 896 896 898 897 891 885 885 890 892 890 890 890 890 889 885 884 888 886 880 879 880 875 873 873 873 879 883 880 882 887 889 891 891 888 887 881 871 870 875 875 875 877 876 875 876 876 876 875 872 869 866 864 862 860 856
866 865 864 863 862 862 861 860 860 859 859 859 858 857 858 859 861 861 861 865 869 874 882 892 896 898 898 898 897 897 897 896 897 896 896 898 897 892 890 894 895 892 892 893 892 891 887 884 888 886 880 883 884 875 870 872 875 878 880 878 880 887 892 891 888 886 885 878 870 871 876 875 875 876 875 875 875 874 873 872 870 867 865 862 860 857 854
868 867 867 866 865 864 864 863 863 862 862 862 861 860 860 861 863 863 862 864 867 871 879 889 896 898 898 897 898 898 897 896 896 896 896 896 897 896 895 896 895 893 894 894 892 890 888 886 885 883 880 884 888 883 878 877 878 881 882 878 881 889 891 889 886 885 882 875 871 874 877 875 873 874 874 875 874 873 872 870 867 865 863 860 858 855 852
870 870 869 869 868 867 866 866 866 865 865 865 864 863 863 863 864 864 864 864 866 870 877 888 895 898 898 898 898 897 897 897 896 895 896 895 895 896 896 895 895 893 893 892 892 891 889 886 886 885 886 890 893 893 891 887 886 887 885 881 885 889 887 884 887 887 882 876 875 879 882 878 874 873 874 874 873 872 870 868 866 864 862 859 857 853 851
873 872 872 871 870 869 869 869 868 867 867 866 866 865 865 865 866 866 866 866 865 868 877 887 894 896 896 897 898 897 897 897 896 895 895 895 895 895 896 895 895 893 892 891 890 889 887 885 886 890 894 895 893 893 894 893 891 888 881 878 882 886 884 884 888 887 882 878 878 882 884 880 875 874 874 873 872 871 869 867 865 863 861 859 857 853 850
875 874 873 872 871 870 869 869 869 868 868 868 868 867 866 868 869 868 868 867 866 870 880 888 891 894 895 896 898 898 897 896 896 895 895 895 895 895 896 895 894 894 893 892 889 886 886 889 891 893 896 896 894 891 890 890 888 882 877 878 882 884 885 886 888 886 882 881 881 883 883 880 877 875 874 872 871 870 868 866 864 862 860 858 856 853 849
877 876 875 873 872 871 870 869 868 868 868 868 868 868 868 869 871 871 871 871 870 871 877 883 887 892 896 897 897 897 896 896 896 895 895 895 896 895 895 895 895 895 893 892 890 889 889 892 895 895 895 897 896 891 888 889 886 879 878 882 884 885 886 887 887 887 885 883 882 883 882 879 877 875 872 871 870 869 867 865 863 861 859 857 855 852 849
878 877 876 875 874 872 871 869 868 868 868 868 869 870 870 871 872 873 873 872 872 872 875 882 889 894 896 896 897 897 896 896 895 895 895 895 896 896 896 895 895 895 893 890 891 892 891 892 894 895 896 898 896 891 890 891 887 880 880 884 886 886 888 887 887 887 886 884 883 883 881 878 876 873 871 870 869 868 866 863 861 859 857 855 853 850 847
880 879 878 877 876 875 873 872 871 870 869 869 870 873 875 875 874 874 874 873 873 873 875 880 888 892 892 894 897 897 896 895 895 894 895 895 895 896 896 895 895 895 894 892 891 892 893 894 894 895 897 898 898 895 894 891 886 882 884 887 887 888 888 887 887 887 886 885 885 883 879 876 874 873 871 869 867 866 864 861 859 858 855 852 850 848 845
881 881 880 879 878 878 876 876 875 873 872 873 874 875 877 876 875 875 874 874 874 875 875 879 886 891 891 893 895 897 895 895 895 894 894 895 896 895 894 895 895 894 894 893 892 893 895 895 894 895 897 898 899 899 896 889 884 885 888 889 889 889 889 888 887 887 886 885 885 884 880 876 873 872 870 868 866 865 862 860 858 856 853 850 848 845 843
882 882 881 880 880 879 878 878 878 876 875 876 877 878 878 877 876 876 875 875 875 877 880 884 888 890 890 889 892 896 897 895 895 895 894 895 897 895 893 893 892 893 894 894 893 893 895 896 895 895 896 898 901 900 894 886 885 889 890 890 889 889 889 888 887 886 885 884 883 882 879 875 873 871 869 866 865 863 861 859 856 854 851 848 846 843 841
883 882 882 881 881 880 880 880 878 878 878 878 880 881 880 879 878 877 876 876 876 878 885 892 893 893 893 889 887 893 898 898 897 899 898 897 897 897 895 893 891 892 895 896 893 892 895 899 899 896 894 898 901 898 891 887 889 891 890 889 890 890 890 889 887 885 884 883 882 880 878 875 872 870 867 865 863 861 859 857 855 853 850 847 844 842 840
884 883 882 882 881 881 881 880 879 879 880 880 881 882 881 881 881 880 879 879 879 881 889 897 899 901 903 897 893 896 899 898 898 900 900 898 897 898 897 893 891 894 898 897 894 894 898 902 901 896 895 896 895 892 891 892 893 893 891 891 891 891 890 890 888 885 884 883 881 878 876 873 871 868 866 863 862 860 858 856 854 852 850 846 843 841 839
884 883 883 882 881 881 881 881 881 882 882 882 883 883 882 882 882 881 881 883 884 888 892 896 901 909 912 907 903 903 901 898 898 899 900 900 900 900 899 895 893 896 897 895 897 901 903 903 902 897 894 893 892 892 895 896 894 894 894 892 891 891 891 889 888 886 883 881 879 876 873 871 869 867 864 862 860 859 857 855 853 851 849 846 843 841 839
884 884 883 882 882 882 882 882 883 883 883 883 883 882 883 884 882 884 888 890 891 895 899 901 906 914 916 911 907 905 904 903 902 899 900 903 901 899 899 898 899 900 897 895 902 907 904 903 907 905 897 894 894 895 895 895 894 894 894 893 891 891 890 888 887 886 884 881 878 875 873 871 868 866 864 861 859 857 856 854 853 851 849 846 844 841 838
884 884 884 882 883 884 883 884 884 883 883 884 882 882 886 886 884 887 895 899 899 901 905 907 911 917 916 911 909 909 910 910 905 901 903 905 902 900 901 900 902 903 897 894 902 907 900 899 907 907 897 893 895 894 893 894 894 893 893 892 891 891 889 888 887 886 884 882 879 876 875 873 870 867 864 862 859 857 855 854 852 851 849 847 844 841 837
885 885 884 884 885 885 884 884 884 882 883 884 883 884 888 890 892 898 900 898 900 907 911 912 917 921 920 917 915 914 914 913 910 909 910 909 907 907 906 904 905 907 900 896 904 909 902 898 903 901 891 889 892 893 892 893 893 892 892 892 891 889 889 887 885 884 882 880 878 876 875 873 871 869 866 863 860 857 855 854 852 851 849 846 843 840 836
886 885 884 885 885 885 885 885 883 883 885 884 884 888 893 896 905 913 907 896 898 912 919 918 917 918 920 921 919 916 916 918 918 918 916 913 911 911 908 907 909 907 899 899 909 912 906 901 900 895 889 889 891 892 892 893 892 891 891 891 890 889 888 886 883 882 881 879 877 875 874 873 871 870 867 864 862 858 856 854 852 850 848 845 842 838 834
886 886 886 887 886 885 885 885 883 884 885 883 885 897 905 905 907 910 907 903 909 917 919 918 918 917 919 922 921 918 919 921 920 918 916 913 914 914 913 912 910 902 898 906 914 911 904 901 897 891 888 889 891 891 892 892 891 891 891 890 889 888 886 884 882 881 879 878 876 874 873 871 870 868 866 865 862 859 856 854 852 850 847 844 840 837 833
888 887 887 886 886 885 885 885 886 889 890 888 888 894 901 905 910 912 911 915 922 922 918 918 920 918 918 921 921 920 921 921 920 920 918 916 918 918 914 910 907 903 905 913 913 904 899 898 894 889 889 890 891 892 892 891 891 891 890 890 889 887 885 883 881 879 878 877 875 873 871 870 868 867 865 864 862 859 856 854 852 849 846 842 838 835 832
888 888 887 887 888 887 885 885 888 889 890 894 896 894 893 900 909 912 909 912 919 921 920 922 922 918 917 921 922 921 921 921 920 919 919 920 922 919 911 904 905 908 910 911 907 902 900 899 894 891 891 891 891 891 892 891 891 891 890 889 888 886 884 882 880 878 876 875 873 871 870 869 867 865 864 862 861 859 856 853 850 847 844 840 837 833 831
887 888 887 886 888 888 886 888 891 892 892 897 902 901 898 901 905 907 911 919 923 922 922 925 925 921 920 922 921 922 924 922 918 918 922 922 918 914 909 909 912 914 912 908 904 899 896 894 892 891 892 893 893 892 892 891 891 890 889 888 887 885 883 881 879 877 876 874 872 871 869 867 866 865 863 861 860 859 856 853 849 846 843 840 836 832 829
888 892 891 887 889 895 895 891 891 894 900 907 910 909 908 909 911 915 923 928 926 922 923 927 926 923 921 921 921 923 926 923 919 922 927 922 912 910 914 916 914 910 907 902 898 893 890 890 891 893 895 895 895 893 892 892 891 890 889 888 886 884 883 881 879 877 875 874 872 871 869 867 866 865 863 861 860 858 855 853 850 846 843 840 835 831 828
891 896 894 889 892 899 900 898 902 908 915 920 923 923 923 924 924 926 928 929 927 926 927 929 927 924 924 924 922 922 926 926 922 923 926 921 913 914 918 914 908 908 906 898 892 891 892 892 894 895 897 898 897 895 893 892 891 891 890 888 886 885 884 882 880 878 876 874 873 871 869 867 866 865 863 861 858 856 854 852 849 846 842 839 836 832 828
893 895 893 892 896 899 901 907 917 923 926 928 930 932 932 930 926 925 927 929 929 927 926 926 925 922 923 925 922 921 924 924 919 920 926 923 914 911 910 904 901 907 909 901 894 893 893 894 896 899 899 899 898 896 895 893 892 891 890 888 887 885 884 882 880 878 876 874 873 871 869 868 867 865 863 859 856 854 853 851 848 845 842 839 836 832 828
895 895 897 903 908 911 915 920 919 916 922 931 934 933 931 928 923 923 927 929 928 927 927 928 924 920 921 924 923 921 922 921 917 919 923 919 911 910 912 905 898 898 900 898 896 896 895 897 899 900 900 899 898 896 895 894 893 892 891 889 888 886 884 882 881 878 876 875 874 872 870 869 867 865 862 860 856 853 851 850 848 845 842 839 836 832 828
897 900 907 911 910 910 918 921 912 906 913 924 927 927 928 925 921 923 927 928 928 927 927 926 924 923 924 924 917 913 917 925 925 920 914 910 911 917 917 907 896 893 894 895 897 897 897 899 900 900 899 900 898 896 895 895 894 893 892 890 888 886 884 882 881 879 877 876 875 873 871 870 867 865 863 860 856 852 850 848 847 845 841 838 835 831 828
902 907 916 920 915 912 916 916 910 907 912 917 918 922 924 922 919 922 926 927 927 925 921 922 924 924 920 914 909 908 917 928 930 921 912 912 918 919 908 896 892 894 894 895 898 899 899 900 901 901 900 900 898 897 897 896 894 893 892 890 887 886 884 882 881 879 877 876 875 873 871 869 867 866 863 860 856 852 848 845 844 842 840 837 834 831 829
907 911 919 925 925 924 922 920 917 918 921 921 922 924 923 920 921 924 926 926 924 920 919 923 925 919 911 911 916 919 921 922 919 913 909 912 916 912 901 893 894 896 897 898 900 900 900 901 901 901 900 900 899 898 897 895 893 892 891 889 887 886 884 882 881 880 878 876 875 873 871 869 867 865 862 859 856 853 849 845 843 842 839 837 834 832 830
Wind_Speed
14 13 11 9 8 7 5 5 6 6 4 2 2 1 1 2 3 6 12 6 3 4 7 4 5 5 2 0 2 2 2 2 1 1 1 1 1 1 0 1 1 1 2 2 1 2 2 2 2 1 1 2 2 2 2 3 3 3 2 1 2 1 2 5 7 5 2 5 4 3 3 4 4 4 2 2 1 1 3 5 5 6 9 9 10 12 12
11 9 7 6 5 4 4 2 0 1 4 4 2 2 2 2 2 5 14 11 3 2 5 4 4 4 2 2 3 1 1 2 1 1 1 1 1 1 1 1 1 1 1 2 1 1 1 1 0 0 1 1 2 1 1 2 2 2 2 2 2 1 2 5 7 6 3 0 0 0 2 3 1 4 4 3 2 1 4 4 2 5 9 10 11 12 12
7 6 5 4 3 3 3 4 5 5 5 3 2 2 2 1 2 2 13 17 9 3 2 4 6 4 3 5 3 1 2 2 2 2 2 1 1 2 1 1 1 1 1 2 2 1 2 1 1 1 0 1 3 2 2 2 2 3 2 3 3 2 3 4 5 6 7 7 6 5 5 6 4 3 6 3 2 1 2 5 5 7 11 12 11 13 16
6 5 5 3 3 3 3 3 3 2 1 1 4 4 1 0 3 2 5 11 9 4 2 3 7 5 3 4 1 1 2 2 0 1 1 1 1 1 0 0 2 2 2 3 3 2 2 2 1 1 1 1 2 3 3 3 1 2 1 3 2 2 3 1 3 3 7 9 10 11 10 10 10 6 1 5 3 1 2 4 7 10 13 12 11 13 21
4 4 3 2 2 3 4 4 3 3 3 2 4 6 3 1 2 2 1 3 5 5 4 4 3 2 0 1 2 1 2 2 1 0 1 1 1 1 0 0 1 1 2 3 3 2 3 2 1 1 1 1 1 3 3 2 2 2 2 3 2 3 3 1 2 5 10 12 14 14 12 11 13 11 5 2 4 3 3 6 9 11 11 12 15 20 24
2 2 1 1 1 3 5 5 3 2 1 1 2 3 4 2 2 1 2 1 2 3 2 3 3 3 2 1 1 1 1 1 0 1 1 1 1 1 1 0 1 2 3 3 3 4 3 3 2 1 2 1 1 3 3 2 3 3 2 2 0 4 3 2 2 8 13 14 14 12 11 11 11 11 8 3 4 4 6 10 11 10 10 14 22 27 25
1 1 1 3 3 1 5 5 1 1 2 2 3 4 3 2 4 2 3 2 3 2 2 1 3 4 3 2 1 1 1 1 1 1 1 1 1 1 2 1 2 1 2 3 4 5 4 2 1 0 1 2 2 3 2 2 3 2 1 2 1 2 1 2 1 9 13 12 10 8 10 11 9 8 6 3 3 5 9 12 12 12 15 18 23 27 25
3 3 2 4 6 5 4 4 4 5 5 4 5 5 2 1 3 2 2 4 4 2 2 2 1 2 1 1 1 1 0 1 1 1 1 1 1 0 3 3 2 1 2 3 4 4 5 5 3 0 1 1 2 2 1 1 2 1 1 2 1 1 1 2 0 7 9 5 5 8 9 9 8 5 4 3 5 7 9 11 12 13 16 20 23 24 20
8 7 6 6 6 6 6 5 4 2 3 4 5 4 3 4 4 4 4 5 2 2 0 2 1 2 1 1 1 0 0 1 1 1 0 1 2 2 3 3 1 1 2 4 4 4 6 6 4 0 1 2 2 1 3 3 1 1 2 1 2 2 2 1 1 6 6 3 9 13 7 2 2 5 5 4 6 6 8 10 11 12 17 22 21 17 13
13 12 11 10 9 8 7 5 4 3 3 5 5 4 5 6 4 1 2 4 1 2 0 1 1 1 2 2 1 0 1 2 1 0 1 1 1 3 3 3 2 2 2 3 3 5 5 4 3 2 1 1 3 3 4 4 2 1 2 0 1 2 3 2 3 5 6 7 14 14 4 2 2 3 4 3 5 9 12 12 14 15 16 16 14 12 14
18 17 16 15 13 12 10 7 6 5 3 4 7 9 8 5 3 1 2 4 2 1 1 1 1 1 0 1 1 0 1 1 1 1 1 1 1 1 2 2 3 2 1 1 2 2 2 3 3 3 2 3 4 3 4 5 5 3 1 1 1 1 3 3 2 3 7 11 14 11 5 2 1 4 5 1 5 10 14 16 18 17 14 12 13 15 18
19 18 18 17 16 15 14 12 9 7 5 7 12 14 10 6 4 2 1 4 2 1 0 2 2 1 0 0 1 1 1 1 1 2 2 1 2 1 2 2 3 2 2 3 3 3 4 5 5 5 5 5 5 4 5 6 5 2 1 1 2 2 3 2 1 3 6 9 10 8 5 2 4 6 4 3 6 10 16 19 18 16 16 16 16 17 21
21 20 19 19 18 16 15 14 12 10 8 8 11 13 11 8 5 2 2 4 3 1 2 2 1 2 1 0 1 2 2 1 1 1 2 1 0 1 1 1 2 1 5 7 4 2 2 3 4 4 5 5 5 4 4 4 3 2 0 3 3 3 3 2 2 3 5 6 5 5 6 1 7 6 2 5 8 12 15 17 17 16 15 13 15 19 22
21 21 21 21 20 19 18 16 13 11 8 5 7 12 11 6 3 2 2 4 4 1 1 2 2 1 1 0 1 2 1 1 1 1 1 1 1 2 3 2 2 4 7 6 3 2 2 1 2 2 3 3 3 3 3 3 1 1 1 2 2 3 3 2 3 2 2 6 6 7 10 4 5 4 3 6 9 12 12 14 16 14 10 10 15 21 24
21 21 21 21 20 20 19 18 16 14 10 5 7 12 10 5 5 5 3 4 5 2 1 0 2 3 3 1 1 0 1 1 1 1 2 2 1 3 4 3 2 4 5 3 2 3 2 3 4 3 2 2 2 1 3 4 2 2 2 1 2 2 2 2 3 1 2 6 6 6 8 4 3 4 4 7 9 11 12 14 13 7 8 14 19 23 26
21 21 20 20 20 19 19 18 17 15 12 8 9 14 14 10 9 10 7 4 4 3 1 2 2 1 2 2 1 1 1 1 1 1 1 3 3 3 4 3 1 3 4 2 2 2 3 3 3 4 4 2 2 2 2 3 3 4 4 2 1 2 1 1 3 4 3 5 5 5 6 3 3 3 7 9 10 12 12 11 7 6 14 19 21 24 27
22 21 21 21 20 18 17 16 16 15 13 9 9 13 15 12 9 10 9 5 3 3 2 2 3 2 1 2 1 0 1 2 1 2 1 1 3 3 3 2 1 3 4 3 2 3 4 3 3 5 4 0 1 4 3 2 2 2 3 4 3 2 1 2 3 4 4 4 5 4 4 1 3 6 10 12 13 13 11 8 6 10 18 20 21 24 25
22 22 22 21 21 20 18 15 14 13 11 10 10 14 15 12 8 8 7 4 4 4 3 4 2 1 1 1 1 1 1 1 1 1 1 1 2 2 2 2 2 3 4 2 2 3 4 3 2 4 3 1 0 3 2 2 3 2 1 3 2 1 1 2 2 4 5 5 5 5 3 1 3 7 11 13 12 10 7 7 9 14 19 20 20 22 22
23 22 22 21 21 21 20 18 16 12 10 8 7 11 14 11 9 10 9 5 4 4 3 2 2 1 2 2 1 0 0 1 2 2 2 1 1 1 1 1 1 1 3 3 3 2 3 3 1 2 3 1 0 2 3 2 2 1 2 3 2 1 1 2 3 4 5 4 5 7 4 3 2 9 10 9 8 6 5 9 13 16 19 20 20 20 20
23 23 22 22 22 22 22 21 19 16 14 10 7 12 17 11 6 6 7 7 6 5 4 2 2 3 3 2 1 1 1 1 1 2 3 2 1 0 1 1 1 1 2 2 2 1 2 3 1 0 3 2 1 2 3 1 1 0 1 1 1 0 2 3 2 2 4 5 4 5 3 0 6 11 9 5 5 6 8 11 14 15 18 18 17 16 17
22 23 23 22 23 23 22 22 19 16 15 11 8 15 22 19 13 9 12 17 12 4 2 2 3 4 4 3 2 1 2 2 2 2 2 2 1 2 3 3 2 2 1 2 2 1 0 2 1 1 3 2 0 1 3 2 2 1 1 1 2 2 1 3 2 1 1 4 3 3 5 6 9 9 7 7 8 8 8 11 12 13 14 14 13 14 16
22 22 22 22 22 22 22 22 19 17 16 12 10 17 22 21 19 14 16 22 20 10 7 8 6 7 7 6 5 2 1 1 0 1 2 2 1 0 3 3 1 1 2 2 3 2 0 1 2 2 3 3 2 1 1 3 3 1 2 3 3 4 2 3 2 2 2 5 7 8 9 9 8 7 8 10 11 10 10 12 12 11 11 11 11 14 17
22 22 21 21 21 21 21 22 20 20 18 14 14 20 22 20 18 15 17 24 22 13 10 9 6 6 6 6 7 5 3 1 1 1 0 2 1 1 1 2 2 1 1 1 3 3 2 2 2 3 3 2 2 2 2 3 3 1 3 4 3 3 2 1 2 4 5 7 9 10 10 9 8 8 9 9 9 9 10 11 11 11 12 11 11 14 17
22 21 20 20 21 21 21 21 20 21 20 17 17 21 24 21 18 17 17 16 10 5 5 4 2 2 2 4 5 5 4 3 1 2 2 1 2 1 1 2 2 2 0 1 2 2 2 2 1 2 3 1 1 3 4 4 2 1 2 3 3 4 3 3 4 5 6 6 7 8 9 9 10 10 9 8 9 10 10 10 11 12 14 14 14 16 17
21 20 19 18 19 20 20 20 20 19 19 17 16 17 19 16 11 9 10 8 4 3 4 3 1 3 3 3 4 4 5 4 2 1 2 2 2 3 2 3 3 2 1 2 2 2 2 2 1 3 3 0 0 3 3 2 1 1 2 3 2 4 3 3 5 6 7 10 11 10 10 10 10 8 7 8 10 12 12 12 14 16 17 19 20 19 18
20 20 19 18 19 20 20 20 20 19 18 16 15 16 17 16 11 9 11 11 7 4 4 3 1 2 2 2 3 4 5 6 4 1 1 2 4 4 3 4 3 2 2 2 2 2 2 2 2 3 3 1 1 2 2 2 1 1 3 2 2 4 2 3 5 6 8 10 10 10 10 9 6 6 8 10 11 12 14 15 16 17 18 19 21 22 22
17 16 16 16 17 19 21 21 20 20 19 18 19 20 19 17 13 8 7 6 3 2 3 3 2 1 1 2 4 6 6 6 5 3 1 1 2 3 3 4 3 2 2 2 1 1 2 2 2 2 1 1 1 1 1 2 2 2 4 1 4 3 3 3 4 5 7 7 8 9 9 8 7 9 12 13 12 13 14 15 15 16 17 17 18 21 24
15 13 11 10 9 9 11 12 13 15 16 17 19 22 24 22 19 15 9 4 2 3 4 3 3 2 3 1 5 8 6 5 5 4 2 0 1 2 3 4 3 2 2 2 2 1 2 2 1 0 1 1 1 1 1 1 2 4 5 3 5 3 3 2 4 6 8 9 10 8 6 8 10 12 13 14 14 14 14 15 16 16 18 18 17 18 19
15 14 13 12 10 7 4 2 1 4 7 8 10 14 18 19 18 17 14 11 11 11 6 3 4 3 1 0 4 7 7 4 4 3 2 1 1 1 2 3 2 1 1 2 3 2 2 1 1 1 1 2 2 1 1 2 3 3 1 4 5 2 2 3 6 9 10 11 9 7 8 10 12 13 13 15 16 14 13 15 17 17 19 20 19 19 19
15 15 15 15 14 14 11 7 1 3 3 2 2 3 6 10 12 13 12 9 10 10 5 2 3 2 0 0 1 4 7 5 3 2 1 1 1 1 0 1 1 1 2 2 2 2 1 1 1 0 1 2 2 2 1 2 3 2 2 5 3 2 3 4 6 7 9 10 9 8 10 11 12 14 15 15 16 15 14 16 18 19 21 22 20 20 22
13 14 15 15 16 17 17 15 10 3 3 2 0 1 1 2 7 10 8 5 6 6 4 3 3 2 0 1 1 3 7 5 3 2 1 1 1 1 1 0 0 1 2 2 0 0 1 0 0 1 1 2 2 2 1 2 4 2 2 3 1 3 4 6 6 7 9 10 9 10 11 11 11 13 13 13 17 19 18 19 21 22 22 22 21 21 22
11 12 12 14 15 16 18 19 17 13 12 13 11 9 5 1 4 6 6 5 5 5 3 3 2 1 1 1 2 5 9 5 2 2 1 1 1 1 0 0 0 0 1 1 1 1 1 1 1 1 1 1 2 2 1 4 5 2 2 1 2 4 5 7 7 7 9 9 8 10 11 10 10 11 13 16 20 21 19 20 23 23 22 22 22 21 22
7 8 9 10 11 12 14 15 15 16 20 22 21 19 15 9 4 2 3 5 6 5 3 2 2 1 2 2 3 6 9 4 1 2 1 2 2 2 1 1 1 1 1 1 0 1 1 1 1 0 1 1 1 2 3 4 3 2 3 2 4 5 6 8 8 8 8 8 8 8 10 12 14 16 19 20 21 21 20 22 22 22 22 21 19 20 21
4 5 5 6 7 7 7 9 11 13 16 17 16 18 21 19 14 8 3 3 6 7 5 3 1 0 2 2 3 5 8 4 1 3 3 2 3 3 1 0 1 1 1 2 1 0 0 1 2 1 1 1 0 2 3 2 3 3 4 5 5 5 7 8 8 8 8 9 9 11 14 17 18 18 18 18 19 21 22 22 21 20 18 16 15 18 20
4 4 4 4 5 5 5 5 7 9 11 10 9 10 14 18 20 17 11 5 3 2 3 3 2 1 2 2 1 4 7 3 1 2 2 1 3 2 2 1 1 1 1 2 1 0 1 1 2 2 1 1 1 3 2 3 4 4 6 6 6 7 8 8 9 9 9 10 11 13 16 18 17 16 14 14 17 19 19 19 19 18 15 14 15 19 20
5 4 3 3 3 4 4 5 6 7 6 5 5 6 8 10 13 16 17 15 11 6 2 1 1 2 3 3 2 5 7 3 0 0 1 1 1 2 1 2 1 0 1 1 1 1 2 1 2 2 0 0 1 1 3 4 5 6 8 8 7 7 8 9 11 11 11 12 13 14 15 15 14 13 13 13 14 17 17 17 17 16 15 15 16 18 20
6 5 4 3 2 2 3 5 6 6 5 3 2 3 5 4 4 8 12 14 14 11 5 2 2 3 2 2 2 5 6 3 1 2 1 1 1 2 1 2 2 1 1 0 1 2 2 1 2 3 2 1 2 2 2 3 4 6 7 8 7 7 7 9 11 12 13 14 14 13 13 13 12 12 12 12 13 14 15 15 15 15 15 16 15 17 21
6 5 4 2 1 1 2 3 4 4 4 3 1 2 4 4 3 4 5 6 7 8 6 3 2 1 1 2 2 4 5 2 2 2 2 1 2 1 0 1 1 1 2 1 2 1 2 1 0 2 3 2 3 2 3 4 4 4 6 7 8 8 9 10 10 11 11 12 12 12 12 13 13 13 13 13 14 15 15 16 17 17 18 18 19 21 24
6 4 3 2 1 0 1 4 5 3 3 3 1 1 3 4 2 2 2 2 2 3 3 2 2 1 2 2 2 4 4 3 3 2 2 2 2 2 1 1 1 1 3 1 2 1 2 0 1 1 2 1 1 1 3 3 4 5 7 9 10 10 11 11 11 11 11 11 13 14 13 14 14 14 12 12 13 15 17 18 19 19 19 21 23 24 24
5 3 2 2 2 1 2 6 6 2 1 2 3 2 2 3 3 1 1 1 2 2 2 2 1 1 2 2 2 2 4 3 2 2 2 2 1 1 2 1 1 2 3 1 2 2 2 1 1 1 1 2 2 1 1 3 5 6 8 10 11 12 12 13 14 14 14 15 16 17 16 16 16 15 14 14 14 14 16 18 20 20 21 23 25 26 25
4 3 1 1 1 1 3 5 6 3 1 1 3 2 2 2 1 1 1 1 2 1 1 1 1 0 1 1 2 2 4 4 2 1 2 1 1 1 2 2 1 1 2 1 2 2 2 2 2 1 1 2 2 2 2 4 6 8 10 13 13 12 13 15 16 15 15 15 16 16 17 17 17 17 17 18 17 16 17 19 20 22 23 24 25 26 27
4 2 2 1 2 3 3 3 5 4 2 1 2 2 1 1 1 0 1 2 2 1 0 0 2 2 1 1 2 1 2 3 1 1 2 1 1 1 2 1 1 1 1 1 1 1 2 2 2 1 3 4 3 3 4 6 6 8 11 14 13 13 14 15 16 16 15 15 15 16 16 18 20 21 21 20 19 20 21 21 22 23 24 25 26 27 27
3 2 1 1 2 4 3 2 3 3 2 2 2 2 1 1 1 0 1 1 0 1 1 0 1 1 0 1 0 0 0 2 1 1 1 1 1 1 1 1 1 1 1 1 1 2 2 2 2 2 5 5 3 3 5 6 7 8 11 13 14 15 15 15 15 16 16 15 16 17 17 19 22 24 24 22 21 22 23 25 27 28 27 27 27 26 26
3 2 2 1 2 3 3 2 2 2 2 2 1 1 1 2 1 0 1 1 0 1 1 1 1 2 1 1 1 0 0 0 0 0 1 1 1 1 1 1 1 1 1 1 1 2 2 2 2 3 6 6 5 5 6 7 6 8 10 13 15 16 16 16 16 16 16 16 16 17 18 19 21 21 21 20 20 19 21 26 30 30 28 27 27 27 27
2 2 2 2 2 3 2 1 1 2 2 1 1 1 1 2 1 0 1 2 1 1 1 1 1 2 1 0 1 0 1 1 0 0 1 1 1 0 0 1 1 1 1 1 2 2 2 2 2 5 7 9 9 9 8 7 7 8 9 12 15 17 17 18 17 16 16 16 16 15 16 17 17 16 15 17 19 20 22 25 27 27 26 26 27 28 28
2 2 2 1 1 2 1 1 2 2 1 1 1 1 1 2 2 1 1 1 1 0 1 1 1 1 1 1 1 1 1 1 1 0 0 1 1 0 0 1 1 1 1 2 2 2 2 4 5 6 8 10 10 9 8 8 8 8 8 10 14 17 19 19 18 17 17 17 18 18 18 17 16 15 15 17 21 22 23 23 24 25 26 25 26 27 31
2 1 1 1 1 1 1 1 1 2 1 1 1 2 1 1 1 0 0 1 1 0 1 0 1 1 0 0 0 1 1 1 1 0 0 1 1 1 0 1 1 1 1 2 2 2 3 5 6 7 8 9 9 9 8 8 8 9 11 13 15 18 18 19 18 18 18 18 18 18 18 17 17 16 17 19 22 21 20 20 24 27 27 26 27 31 34
1 0 1 1 0 1 2 1 0 0 1 1 1 1 1 1 1 1 1 1 1 1 1 0 1 1 1 0 0 0 0 1 0 0 0 0 1 1 1 1 2 1 2 2 3 4 5 6 6 6 6 6 6 7 7 7 8 10 12 14 16 17 18 17 17 18 18 18 17 16 17 18 18 18 18 20 21 20 19 21 26 28 28 28 31 35 36
4 3 2 2 1 0 1 0 1 1 2 1 0 0 1 1 1 1 2 2 1 0 0 1 1 1 0 0 0 0 0 0 1 0 0 0 1 0 0 2 3 2 1 1 2 4 5 5 5 5 5 5 5 6 7 8 9 11 13 14 16 16 16 16 17 17 18 17 15 16 18 20 20 19 18 19 21 22 24 25 26 26 27 30 32 34 34
6 4 2 1 1 1 0 1 1 1 2 1 1 1 1 1 1 2 3 3 1 0 1 1 1 1 0 1 1 0 0 0 0 1 1 1 1 1 1 3 3 2 1 2 3 4 5 5 4 5 6 6 6 7 9 10 11 13 15 17 17 16 16 16 16 17 16 16 15 17 20 20 18 17 18 21 24 27 28 27 26 26 28 31 32 32 31
4 4 2 1 1 2 1 1 1 2 2 1 1 0 2 1 1 2 5 4 1 1 1 0 1 1 0 1 1 1 0 0 0 1 2 1 2 2 2 3 3 2 3 4 4 4 4 4 3 4 5 6 7 9 11 13 14 16 18 19 19 20 20 19 16 15 15 16 17 18 20 20 20 21 23 24 25 26 27 27 28 29 31 32 31 30 29
2 2 1 1 1 1 1 1 0 1 1 1 1 1 1 1 1 3 6 4 1 1 0 1 1 0 1 1 1 0 0 0 1 1 2 2 2 3 3 3 3 3 3 4 4 4 3 4 5 5 5 7 9 10 12 15 16 17 18 19 20 20 20 18 16 14 16 18 19 20 20 21 24 25 25 23 22 22 23 24 27 30 32 31 28 27 27
Wind_Direction
125 131 138 148 164 183 218 257 263 273 271 247 296 335 17 47 87 355 347 346 308 11 76 66 32 70 81 313 76 33 35 94 126 164 179 237 260 249 197 1 358 35 10 327 342 343 292 296 340 350 27 52 64 62 342 299 274 278 292 84 80 281 271 296 302 306 99 119 119 110 114 111 103 100 99 93 69 314 283 290 308 306 293 299 305 290 283
130 138 151 165 187 212 236 250 153 132 153 144 67 73 95 60 110 23 9 5 318 1 77 101 88 86 117 116 91 57 45 48 48 81 40 25 312 306 44 54 355 44 333 280 309 348 280 255 121 301 347 98 133 146 252 279 309 351 357 1 359 325 321 332 328 331 344 37 16 178 216 275 333 114 112 110 120 200 257 260 272 284 295 310 306 288 285
139 146 156 163 167 178 171 142 118 114 138 143 80 104 140 83 127 61 24 32 53 75 59 113 121 120 122 103 78 101 101 48 356 30 42 43 335 319 52 60 294 283 250 235 230 251 257 263 172 176 204 132 152 165 196 246 313 30 18 315 316 304 314 349 355 341 331 322 316 314 311 311 314 123 131 137 109 99 280 291 286 288 307 309 288 281 295
143 145 152 158 161 166 162 175 180 148 143 154 91 81 126 11 59 49 21 35 53 68 28 78 117 131 136 111 68 318 112 105 37 358 30 100 333 304 128 226 253 232 250 254 241 221 219 251 286 239 209 147 139 155 178 235 274 49 347 279 281 280 271 358 29 308 293 293 295 303 309 303 297 302 134 135 121 107 280 294 292 298 308 298 278 289 302
151 155 164 168 168 158 129 111 112 107 107 116 84 56 19 10 53 29 17 50 59 72 48 37 89 116 301 100 102 69 89 114 145 313 7 104 282 278 206 280 282 320 318 285 268 256 225 212 277 297 278 322 103 164 186 226 206 174 224 226 242 286 255 116 34 280 269 277 284 290 296 293 295 304 311 144 144 171 224 261 284 302 307 295 296 307 307
156 157 140 79 170 187 164 135 97 70 111 114 76 41 6 33 99 10 325 24 75 82 46 26 64 65 31 77 99 70 105 116 116 87 108 170 230 246 211 121 30 10 332 305 310 318 282 211 192 259 275 288 206 186 198 188 166 179 202 161 50 298 264 104 356 282 278 281 278 278 286 290 294 300 299 268 175 197 251 266 280 296 292 288 300 308 306
120 132 89 44 40 151 183 188 202 56 106 104 84 75 39 60 106 73 340 37 75 44 354 358 79 67 53 97 84 8 136 128 39 69 211 209 169 240 285 28 52 357 312 312 323 331 317 276 253 241 237 264 248 218 212 165 160 211 264 78 64 286 288 82 309 283 286 280 267 273 286 290 292 289 278 248 218 256 277 282 288 287 278 281 296 303 302
86 87 85 56 54 80 123 146 132 102 97 89 71 67 61 130 128 116 92 90 74 27 325 296 103 84 37 88 78 355 301 116 86 116 274 284 119 298 320 0 19 314 313 310 312 326 314 300 301 242 186 274 265 248 323 69 139 210 357 39 16 325 10 86 240 290 291 274 272 290 296 300 295 257 203 224 274 285 290 295 300 297 289 293 302 302 299
86 81 83 78 72 81 94 114 128 112 98 99 80 64 73 95 117 141 120 93 27 343 27 297 302 94 36 37 98 252 334 72 80 136 227 321 5 7 348 346 317 239 276 289 309 340 322 308 319 275 221 320 347 7 8 4 294 155 75 13 333 327 303 157 322 303 303 345 327 317 325 0 255 217 208 250 283 302 308 304 305 306 303 305 306 301 300
80 78 78 77 75 79 83 88 95 94 102 99 87 101 114 101 101 133 100 90 14 332 44 280 307 69 31 46 92 204 73 67 325 217 155 216 355 13 349 325 299 252 250 290 336 356 344 339 6 19 260 20 46 52 46 32 5 34 94 27 335 323 301 322 356 307 300 333 329 320 326 126 192 197 192 240 302 318 315 309 307 306 305 305 303 303 312
75 73 72 71 68 67 65 67 78 87 91 92 113 141 155 140 126 160 91 99 91 327 317 14 49 81 85 79 95 121 120 141 299 352 80 147 98 33 310 302 304 296 321 34 22 24 52 81 78 71 84 88 83 83 87 73 49 43 88 222 212 242 293 330 10 304 299 320 323 310 278 260 21 111 125 94 337 326 316 310 309 308 307 303 302 308 318
76 75 74 73 71 69 66 65 68 74 92 122 135 145 157 149 132 146 101 100 102 291 86 64 24 8 112 79 101 111 106 109 50 9 341 27 91 142 230 273 312 332 107 121 121 129 128 116 103 97 97 101 103 101 93 79 64 56 44 252 254 307 327 330 326 275 290 313 327 325 318 350 115 127 111 22 336 323 315 307 305 310 313 313 314 318 322
78 77 75 74 74 72 71 70 69 74 94 123 130 134 144 140 117 85 75 98 99 11 80 96 314 297 308 297 103 83 54 42 68 329 287 295 348 160 175 312 347 86 147 150 144 173 177 140 118 114 117 123 128 122 98 79 66 48 284 238 262 331 347 316 298 304 303 317 335 323 312 1 136 143 80 3 333 330 325 313 309 316 321 323 323 321 322
77 75 74 72 72 70 68 69 69 72 87 115 121 124 137 139 109 104 106 99 95 47 70 125 148 185 198 164 103 93 94 178 174 232 218 221 330 42 62 31 44 127 154 159 171 256 256 217 206 188 162 168 196 191 154 130 89 42 329 273 303 334 338 325 331 356 328 314 305 284 286 274 142 132 38 7 340 333 327 310 305 311 326 338 330 322 323
72 72 71 69 68 65 63 62 61 65 74 87 101 110 118 112 106 119 116 104 117 142 252 77 119 145 146 88 18 214 203 196 211 209 148 134 53 62 66 46 81 143 163 187 229 250 268 278 278 276 242 231 266 236 167 162 171 191 246 304 17 16 359 336 313 297 313 307 302 303 306 308 120 103 22 4 340 324 316 303 296 315 355 345 333 327 326
69 69 70 68 66 63 61 59 58 61 67 74 90 96 91 82 92 101 93 93 118 129 88 13 11 116 134 93 31 287 293 313 293 253 177 148 141 113 83 43 48 156 183 237 255 248 261 259 268 289 284 271 302 284 209 184 176 180 210 224 128 81 45 256 266 280 306 305 300 308 307 311 82 39 352 352 342 325 313 295 286 351 356 341 331 329 326
69 69 69 67 65 62 61 60 60 61 62 64 79 88 82 75 87 96 89 77 83 93 64 357 321 284 156 113 116 279 303 313 311 294 295 115 132 135 121 103 162 201 215 248 249 240 261 257 256 280 279 195 318 290 259 252 254 200 200 210 176 129 325 283 282 291 296 292 291 287 272 271 43 4 346 348 339 323 309 289 298 343 342 333 329 326 322
67 68 68 66 63 60 57 56 54 57 62 64 71 77 74 70 78 93 96 89 92 106 72 12 344 285 347 8 49 28 346 303 287 279 276 114 124 135 145 153 185 207 220 265 284 261 269 266 262 290 297 112 4 299 296 297 285 259 248 259 231 189 281 275 277 299 302 288 282 287 273 204 25 357 352 346 332 315 302 299 315 329 328 326 326 322 319
66 67 66 66 66 63 60 58 54 54 60 62 66 66 61 61 79 93 97 84 69 102 102 31 9 38 10 319 246 58 303 261 295 311 315 344 103 110 193 215 225 201 202 236 271 273 281 277 237 298 288 239 178 295 298 305 288 271 291 284 264 240 282 259 253 297 308 284 282 299 279 177 358 345 351 353 337 316 305 309 316 321 321 322 322 319 319
64 64 64 64 64 62 60 58 55 55 59 61 71 70 60 53 60 82 103 111 97 87 85 49 20 50 29 343 323 349 267 215 299 324 342 359 37 279 266 267 14 250 216 242 278 284 287 295 339 284 276 284 21 298 281 259 216 280 320 292 259 277 312 299 288 317 312 287 286 304 286 187 3 347 342 349 334 312 306 311 315 317 317 319 319 317 320
62 62 61 61 62 62 60 58 53 52 57 60 81 81 69 62 62 80 117 122 113 101 101 85 72 81 72 45 41 4 335 18 19 340 343 347 339 326 324 339 353 318 309 313 296 276 273 303 325 273 272 282 173 269 292 286 245 150 101 265 237 178 223 309 329 98 338 303 285 284 293 319 347 343 322 317 318 312 312 313 311 312 316 318 316 315 319
60 61 61 62 64 64 64 64 60 57 60 62 79 88 84 79 78 90 111 102 87 82 114 115 98 87 76 56 51 54 45 61 54 328 333 306 261 21 314 312 331 341 353 324 284 285 290 280 291 284 278 273 245 248 304 292 278 103 131 224 219 170 201 307 312 200 235 268 267 276 294 309 325 326 315 314 313 314 319 314 308 310 315 316 314 315 318
59 60 61 63 66 66 65 66 63 61 63 61 66 84 95 97 92 96 101 93 85 87 106 109 97 82 61 30 24 31 41 61 208 192 329 301 293 159 260 338 1 336 352 335 305 316 317 289 304 306 290 291 292 277 241 237 250 159 176 216 199 160 191 281 279 267 269 262 264 283 298 304 312 315 311 308 309 316 320 313 308 311 313 314 317 316 315
59 59 61 64 66 66 64 65 62 61 63 60 63 82 98 102 98 98 99 97 98 102 101 99 86 59 21 346 356 7 15 22 303 201 186 247 315 334 84 41 359 293 34 45 327 306 297 284 302 292 283 297 322 285 275 262 248 159 185 228 189 158 177 214 246 274 290 282 285 308 318 313 313 311 307 309 314 319 319 313 310 313 314 316 317 314 314
60 60 62 65 69 69 67 65 64 63 64 63 66 82 93 93 90 95 97 98 120 124 103 102 49 3 342 330 344 348 352 359 346 236 197 206 249 279 325 2 331 287 330 359 300 248 259 264 235 258 273 274 204 278 288 299 276 159 222 261 208 152 168 235 255 266 273 278 292 317 323 310 301 296 304 320 322 319 318 314 312 313 314 315 317 317 318
61 62 65 68 71 74 72 70 69 69 69 70 73 78 84 82 80 89 99 100 100 95 94 107 76 23 18 13 358 349 356 2 3 15 218 231 229 246 289 316 297 244 238 286 278 255 268 274 262 266 272 309 333 301 304 323 318 237 256 284 95 117 159 241 270 274 271 280 303 328 325 308 291 292 311 321 321 317 315 314 314 314 314 316 317 319 320
61 64 69 72 76 80 82 81 80 77 74 73 72 74 76 74 69 76 102 115 108 69 95 119 124 116 128 69 11 6 15 15 14 29 16 261 219 216 254 278 277 246 231 241 239 239 259 256 253 271 297 351 341 299 308 326 323 262 259 209 126 155 241 268 288 285 283 300 325 334 319 304 301 310 315 318 317 314 311 312 314 314 314 316 317 317 317
63 61 61 63 66 77 84 86 85 82 76 71 69 69 68 64 60 60 65 72 100 93 91 113 128 148 174 153 5 5 12 16 17 25 29 313 175 189 231 259 269 274 277 269 255 248 264 277 292 44 70 349 293 228 239 285 255 260 262 205 168 211 277 297 290 286 290 305 320 325 304 291 297 306 311 312 312 310 309 310 312 312 313 316 316 315 315
63 60 58 54 50 46 41 31 120 106 85 72 67 65 62 57 54 55 60 74 97 102 94 107 127 125 159 324 5 3 358 352 0 18 34 70 138 177 235 265 277 302 304 280 282 289 290 327 4 35 45 335 300 263 234 242 247 268 268 150 160 207 269 264 276 285 292 301 313 315 296 288 294 300 302 303 305 306 308 310 309 309 312 316 316 314 313
58 57 55 52 49 47 43 32 346 212 174 106 62 58 63 53 43 45 56 78 99 106 107 116 128 118 34 175 49 4 357 344 327 335 355 136 125 105 3 309 291 292 265 248 281 311 302 100 62 2 28 12 311 267 277 279 268 273 119 137 162 257 266 261 270 277 286 299 310 306 294 289 291 293 293 297 304 309 309 307 307 310 313 315 315 312 310
53 53 52 50 49 48 47 48 53 82 173 180 303 358 84 29 13 24 40 65 91 103 103 85 98 124 137 168 174 356 355 344 312 289 260 193 107 64 40 34 43 299 284 271 249 287 286 3 43 197 78 35 323 279 283 281 276 271 137 149 225 293 282 277 277 275 284 299 307 300 292 286 288 293 296 302 308 309 306 305 308 312 313 312 310 308 308
52 54 55 56 55 54 56 60 66 76 88 89 83 77 76 325 323 8 39 63 87 102 95 73 101 174 294 146 135 4 352 338 280 285 263 143 73 16 213 100 51 34 332 307 237 141 7 342 310 211 125 25 319 291 266 267 276 301 95 124 305 309 294 289 291 286 288 297 302 299 295 291 293 299 301 303 305 305 304 305 309 311 311 310 307 306 307
49 53 56 57 56 55 62 67 70 76 81 80 78 72 64 50 29 43 68 70 69 69 59 63 107 65 354 158 141 15 2 348 268 335 20 86 23 322 225 148 168 196 8 336 293 80 24 282 281 298 133 113 319 288 265 270 293 32 49 333 305 303 295 292 290 285 284 285 281 281 288 292 296 298 297 297 300 301 303 307 310 311 312 310 307 307 309
28 32 35 40 39 42 57 65 66 73 78 76 69 62 58 56 55 58 84 92 70 63 57 51 78 10 354 202 172 32 16 2 319 357 23 56 11 336 304 195 214 198 25 356 318 153 79 303 316 302 194 131 354 271 268 313 30 31 348 317 309 306 299 295 292 287 287 286 277 274 281 288 292 295 294 294 298 302 306 310 312 312 311 308 307 312 314
8 5 7 19 29 36 49 56 58 67 70 65 60 60 61 60 55 54 57 62 55 62 60 35 14 20 5 310 230 29 17 2 342 9 357 11 25 9 327 306 261 156 7 337 288 266 35 11 330 298 218 125 260 252 286 5 14 348 327 326 328 321 310 305 304 301 298 295 289 284 286 287 288 291 292 294 300 305 308 310 312 313 312 311 315 320 320
352 348 350 0 21 36 42 42 46 53 53 48 54 66 72 69 60 55 57 58 57 67 97 56 34 41 358 315 311 6 4 356 142 43 303 294 28 24 320 302 307 94 2 317 297 1 33 13 312 290 233 344 297 317 22 7 340 328 330 331 330 323 312 305 306 305 300 296 291 287 287 287 286 288 292 295 301 307 310 313 315 317 316 317 319 323 322
348 347 341 328 335 5 29 39 43 43 39 43 73 79 70 70 62 52 51 50 50 53 58 66 73 58 355 297 317 354 353 350 10 12 355 304 338 348 314 312 339 347 289 306 25 13 1 337 298 279 256 305 339 5 21 342 320 324 327 324 321 317 308 305 305 303 299 297 295 294 297 299 297 298 301 304 308 312 316 318 320 320 319 319 319 321 321
345 347 345 339 348 25 28 21 14 9 15 31 118 101 43 27 38 50 38 26 31 39 39 41 72 68 290 273 331 0 359 345 333 2 30 349 323 339 298 322 1 335 289 314 54 358 286 250 313 285 277 314 342 308 260 277 304 314 311 313 315 310 306 306 306 302 300 301 302 307 310 310 308 309 310 311 313 315 318 319 319 319 320 318 317 318 317
343 338 340 357 20 50 345 343 338 336 2 21 70 88 23 10 15 36 10 348 13 27 17 25 62 40 309 308 6 30 22 340 304 340 23 11 355 5 347 342 28 339 297 298 72 6 305 297 65 301 282 319 351 277 245 267 297 306 306 310 309 305 303 302 298 294 291 291 295 301 304 303 305 308 309 309 310 312 315 317 318 319 319 317 316 316 312
350 350 350 8 32 53 0 350 344 331 12 27 31 46 28 21 29 13 331 7 55 35 7 22 68 53 340 325 324 25 34 16 336 337 354 357 19 6 316 318 22 334 299 307 53 0 319 301 309 323 1 20 357 317 251 282 304 316 320 317 311 306 302 297 294 293 290 287 289 293 294 295 299 301 301 304 308 310 314 316 317 317 316 315 314 313 310
357 6 26 40 357 325 342 360 11 30 88 38 35 42 31 27 41 2 320 22 46 43 39 11 311 326 68 355 284 327 32 41 40 304 295 326 30 347 300 313 10 315 282 318 36 356 307 285 285 304 16 0 324 294 293 307 317 328 332 328 320 311 304 300 298 296 293 291 293 295 296 299 300 299 298 302 306 308 310 312 313 314 313 311 309 309 309
27 38 60 63 1 337 334 359 19 30 39 48 49 41 14 10 37 10 20 41 26 347 96 50 322 332 35 10 288 301 20 27 17 263 273 324 16 351 303 313 325 284 287 354 1 288 271 280 283 331 12 356 324 301 310 316 320 328 332 331 325 314 308 306 304 300 295 291 290 291 294 297 299 299 300 302 305 307 308 309 311 312 310 308 308 309 311
17 13 355 337 351 359 4 11 24 33 40 41 41 28 355 13 42 355 2 68 50 317 343 3 279 278 37 45 334 219 354 356 356 303 282 325 355 345 317 314 295 282 325 345 297 281 296 294 289 341 356 349 328 311 315 317 322 330 332 331 326 318 312 307 303 298 294 290 288 290 295 300 302 305 307 308 308 308 308 312 316 316 312 312 314 314 314
319 329 355 5 358 4 5 352 9 42 50 36 43 48 9 16 39 265 330 29 51 326 4 15 331 326 3 43 48 72 301 16 79 226 289 336 350 322 330 343 337 319 308 284 269 273 277 263 271 322 339 338 335 337 336 329 328 334 332 328 326 325 322 319 314 309 303 299 296 297 301 306 308 310 312 314 314 311 308 314 319 321 319 318 318 316 318
319 338 16 19 348 355 10 347 352 34 54 45 68 123 45 18 17 297 349 3 333 295 32 58 317 313 332 50 107 57 356 318 257 291 341 331 307 282 306 321 323 319 295 278 280 278 283 303 331 340 344 342 339 339 339 333 328 331 330 327 329 333 332 329 324 317 311 308 306 305 306 310 313 313 313 316 319 318 315 315 319 322 322 321 319 318 322
72 55 52 55 332 333 19 48 7 23 64 49 30 47 45 25 30 39 351 320 288 312 58 44 295 300 332 18 94 104 19 324 295 83 10 299 283 322 34 291 301 323 304 280 279 288 322 345 350 347 345 342 335 332 332 329 326 329 331 330 332 335 335 333 328 322 317 318 318 317 316 318 320 320 319 319 321 321 321 320 321 322 322 320 319 322 326
89 69 61 84 9 332 24 64 26 17 45 45 26 28 18 358 1 58 263 298 311 58 101 35 267 254 264 351 104 127 62 354 321 5 16 279 271 314 3 272 268 286 285 288 303 322 334 342 346 347 342 336 330 327 327 326 327 333 336 334 335 337 337 335 332 327 324 324 324 324 324 325 326 325 323 320 319 321 322 325 326 326 324 322 324 328 330
98 55 51 78 301 329 21 57 128 110 78 66 39 25 2 282 258 206 157 196 233 212 200 258 277 234 189 195 246 252 4 355 329 100 85 273 283 326 355 320 297 266 221 242 302 328 335 340 344 341 331 324 321 321 323 327 333 337 338 337 337 338 337 335 331 328 327 327 327 328 331 333 332 330 326 322 320 321 325 329 331 331 330 330 331 332 333
78 84 74 83 130 142 51 10 259 171 110 109 153 241 239 255 256 143 138 175 219 257 348 310 301 301 334 5 334 160 116 3 339 347 339 280 273 153 231 287 293 288 223 216 293 321 332 339 341 334 326 323 319 318 325 335 340 339 338 336 334 333 333 332 329 328 330 332 331 333 336 338 336 334 330 326 323 323 327 331 334 335 335 336 334 334 336
56 67 68 49 42 72 164 254 305 50 100 125 153 168 191 244 250 169 163 170 196 205 173 214 267 286 329 344 336 12 85 38 353 287 263 240 161 147 219 252 262 278 313 325 326 330 334 339 338 329 325 325 324 328 335 339 337 333 333 333 332 331 333 333 331 332 335 337 337 339 342 342 339 336 332 328 325 324 327 333 338 340 339 339 338 338 340
47 67 73 14 358 11 355 314 353 17 23 17 19 142 190 228 279 171 166 164 176 230 216 219 12 15 353 339 333 329 12 137 185 253 269 239 166 170 230 258 276 311 332 332 334 337 337 338 337 330 326 327 329 330 330 329 329 331 334 336 336 337 339 340 340 340 340 340 343 347 348 346 343 341 338 334 332 332 332 335 340 343 342 340 340 340 342
51 61 40 356 2 358 338 314 13 12 322 310 339 248 235 284 48 142 162 174 211 268 167 105 80 277 302 337 348 337 303 255 247 263 253 218 193 199 230 269 310 334 331 320 321 330 337 338 338 333 324 318 320 322 324 325 329 335 339 340 340 341 343 344 345 344 343 344 349 353 352 348 346 345 343 341 342 342 338 335 337 341 341 339 338 340 341